Fayetteville, AR

4:51 PM CDT on September 22, 2017 (GMT -0500)
Drake

Weather History for KFYV - January, 2012

Change the Weather History Date:

Saturday, January 14, 2012

  Actual Average Record
Temperature  
Mean Temperature 38 °F 35 °F  
Max Temperature 50 °F 46 °F 71 °F (1952)
Min Temperature 26 °F 25 °F -7 °F (1964)
Degree Days  
Heating Degree Days 26 30  
Month to date heating degree days 420  
Since 1 July heating degree days 2103  
Moisture  
Dew Point 23 °F    
Average Humidity 56    
Maximum Humidity 88    
Minimum Humidity 39    
Precipitation  
Precipitation 0.00 in 0.09 in 1.27 in (1951)
Month to date precipitation 1.30  
Year to date precipitation 1.30  
Sea Level Pressure  
Sea Level Pressure 30.20 in    
Wind  
Wind Speed 9 mph (WSW)    
Max Wind Speed 17 mph    
Max Gust Speed 29 mph    
Visibility 10 miles    
Events      
T = Trace of Precipitation, MM = Missing Value Source: NWS Daily Summary

Daily Weather History Graph

Daily Weather History Graph

Search for Another Location

Airport or City:

Trip Planner

Search our weather history database for the weather conditions in past years. The results will help you decide how hot, cold, wet, or windy it might be!

Date:

Astronomy

Jan. 14, 2012 Rise Set
Actual Time 7:26 AM CST 5:24 PM CST
Civil Twilight 6:58 AM CST 5:52 PM CST
Nautical Twilight 6:27 AM CST 6:24 PM CST
Astronomical Twilight 5:56 AM CST 6:54 PM CST
Moon 11:32 PM CST (1/14) 10:25 AM CST (1/14)
Length of Visible Light 10h 53m
Length of Day
9h 57m
Waning Gibbous, 68% of the Moon is Illuminated
Jan 14
Waning Gibbous
Jan 16
Last Quarter
Jan 23
New
Jan 30
First Quarter
Feb 7
Full

Hourly Weather History & Observations

Time (CST) Temp. Windchill Dew Point Humidity Pressure Visibility Wind Dir Wind Speed Gust Speed Precip Events Conditions
12:53 AM 33.1 °F 26.9 °F 16.0 °F 50% 30.12 in 10.0 mi SW 6.9 mph - N/A   Clear
1:53 AM 33.1 °F 26.9 °F 18.0 °F 54% 30.12 in 10.0 mi SSW 6.9 mph - N/A   Clear
2:53 AM 33.1 °F 25.5 °F 19.9 °F 59% 30.10 in 10.0 mi SSW 9.2 mph - N/A   Clear
3:53 AM 39.0 °F 31.0 °F 19.9 °F 46% 30.08 in 10.0 mi SW 13.8 mph - N/A   Clear
4:53 AM 37.9 °F 30.9 °F 19.9 °F 48% 30.06 in 10.0 mi SW 10.4 mph - N/A   Clear
5:53 AM 33.1 °F 26.9 °F 19.9 °F 59% 30.07 in 10.0 mi SSW 6.9 mph - N/A   Clear
6:53 AM 39.0 °F 30.6 °F 19.9 °F 46% 30.10 in 10.0 mi WSW 15.0 mph - N/A   Clear
7:53 AM 39.0 °F 32.3 °F 21.0 °F 49% 30.13 in 10.0 mi WSW 10.4 mph 19.6 mph N/A   Clear
8:53 AM 39.9 °F 32.1 °F 21.0 °F 47% 30.18 in 10.0 mi West 13.8 mph 20.7 mph N/A   Clear
9:53 AM 43.0 °F 36.0 °F 21.0 °F 42% 30.22 in 10.0 mi WNW 13.8 mph 20.7 mph N/A   Clear
10:53 AM 45.0 °F 37.6 °F 24.1 °F 44% 30.23 in 10.0 mi WNW 17.3 mph 27.6 mph N/A   Clear
11:53 AM 46.9 °F - 25.0 °F 42% 30.22 in 10.0 mi WNW 16.1 mph 26.5 mph N/A   Clear
12:53 PM 48.0 °F - 24.1 °F 39% 30.22 in 10.0 mi WNW 17.3 mph 28.8 mph N/A   Clear
1:53 PM 48.9 °F - 25.0 °F 39% 30.21 in 10.0 mi WNW 12.7 mph 18.4 mph N/A   Clear
2:53 PM 50.0 °F - 26.1 °F 39% 30.22 in 10.0 mi NW 9.2 mph - N/A   Clear
3:53 PM 48.0 °F - 26.1 °F 42% 30.22 in 10.0 mi NW 9.2 mph - N/A   Clear
4:53 PM 46.0 °F 41.4 °F 25.0 °F 44% 30.24 in 10.0 mi WNW 9.2 mph - N/A   Clear
5:53 PM 36.0 °F - 25.0 °F 64% 30.27 in 10.0 mi Calm Calm - N/A   Clear
6:53 PM 30.9 °F - 24.1 °F 76% 30.28 in 10.0 mi Calm Calm - N/A   Clear
7:53 PM 30.0 °F - 25.0 °F 82% 30.30 in 10.0 mi Calm Calm - N/A   Clear
8:53 PM 28.0 °F 24.2 °F 24.1 °F 85% 30.33 in 10.0 mi South 3.5 mph - N/A   Clear
9:53 PM 28.0 °F - 24.1 °F 85% 30.32 in 10.0 mi Calm Calm - N/A   Clear
10:53 PM 27.0 °F - 23.0 °F 85% 30.32 in 10.0 mi Calm Calm - N/A   Clear
11:53 PM 26.1 °F - 23.0 °F 88% 30.32 in 10.0 mi Calm Calm - N/A   Clear